EW5391 Weather Reports


time (UTC)temp
F
wind
direction
speed
knots
gust
knots
rain 1hr
in
rain 24hr
in
rain mn
in
humidity
%
barometer
mb
20260510175536 77 135 1.7 2.6 0.00 0.04 0.00 61 1012.6
20260510174516 77 135 3.5 6.1 0.00 0.04 0.00 60 1012.7
20260510173515 77 248 0.9 1.7 0.00 0.04 0.00 62 1012.6
20260510172536 76 135 1.7 2.6 0.00 0.04 0.00 63 1012.6
20260510171516 76 180 2.6 5.2 0.00 0.04 0.00 61 1012.7
20260510170515 75 180 1.7 3.5 0.00 0.04 0.00 62 1012.7
20260510165515 75 158 3.5 6.1 0.00 0.04 0.00 64 1012.9
20260510164515 75 180 1.7 5.2 0.00 0.04 0.00 67 1013.0
20260510163516 74 135 6.1 10.4 0.00 0.04 0.00 68 1013.1
20260510162515 74 180 2.6 7.0 0.00 0.04 0.00 68 1013.2
20260510161516 73 203 1.7 3.5 0.00 0.04 0.00 72 1013.1
20260510160516 72 225 1.7 3.5 0.00 0.04 0.00 73 1013.1
20260510155515 70 180 1.7 5.2 0.00 0.04 0.00 81 1013.1
20260510154636 66 0.0 0.0 0.00 0.04 0.00 90 1013.2
20260510153515 64 90 7.0 7.8 0.00 0.04 0.00 89 1013.2
20260510152516 63 45 4.3 4.3 0.00 0.04 0.00 89 1013.3
20260510151515 63 45 4.3 4.3 0.00 0.04 0.00 90 1013.2
20260510150515 62 45 3.5 4.3 0.00 0.04 0.00 90 1013.0
20260510145515 62 45 5.2 5.2 0.00 0.04 0.00 90 1013.0
20260510144515 62 45 4.3 5.2 0.00 0.04 0.00 91 1012.8
20260510143515 62 45 4.3 5.2 0.00 0.04 0.00 90 1012.7
20260510142515 62 45 3.5 4.3 0.00 0.04 0.00 89 1012.7
20260510141515 62 23 2.6 3.5 0.00 0.04 0.00 90 1012.8
20260510140535 62 23 2.6 3.5 0.00 0.04 0.00 90 1012.9
20260510135515 62 23 2.6 3.5 0.00 0.04 0.00 90 1012.8
20260510134515 62 23 2.6 3.5 0.00 0.04 0.00 90 1012.6
20260510133515 62 23 2.6 2.6 0.00 0.04 0.00 90 1012.6
20260510132515 62 23 1.7 2.6 0.00 0.04 0.00 90 1012.8
20260510131515 61 23 0.9 1.7 0.00 0.04 0.00 91 1012.9
20260510130535 61 23 0.9 1.7 0.00 0.04 0.00 92 1012.9
20260510125515 61 23 2.6 2.6 0.00 0.04 0.00 92 1013.0
20260510124516 60 315 1.7 2.6 0.00 0.04 0.00 92 1013.0
20260510123515 60 338 2.6 3.5 0.00 0.04 0.00 92 1013.0
20260510122515 60 315 2.6 3.5 0.00 0.04 0.00 93 1013.0
20260510121515 60 315 1.7 3.5 0.00 0.04 0.00 93 1012.8
20260510120535 60 293 1.7 1.7 0.00 0.04 0.00 94 1012.7
20260510115515 60 293 1.7 2.6 0.00 0.04 0.00 94 1012.6
20260510114535 60 293 1.7 2.6 0.00 0.04 0.00 94 1012.5
20260510113515 60 315 3.5 3.5 0.00 0.04 0.00 94 1012.4
20260510112515 59 315 3.5 3.5 0.00 0.04 0.00 95 1012.2
20260510111535 59 315 3.5 5.2 0.00 0.04 0.00 95 1012.1
20260510110515 59 315 2.6 3.5 0.00 0.04 0.00 96 1011.9
20260510105515 58 0.0 0.0 0.00 0.04 0.00 95 1011.6
20260510104515 58 0.0 0.9 0.00 0.04 0.00 95 1011.4
20260510103515 58 0.0 0.0 0.00 0.04 0.00 95 1011.3
20260510102555 58 0.0 0.0 0.00 0.04 0.00 95 1011.2
20260510101516 58 0.0 0.0 0.00 0.04 0.00 95 1011.1
20260510100515 59 0 1.7 2.6 0.00 0.04 0.00 95 1011.2
20260510095517 59 315 4.3 5.2 0.00 0.04 0.00 96 1011.2
20260510094537 58 315 3.5 4.3 0.00 0.04 0.00 96 1011.2
20260510093517 58 338 4.3 5.2 0.00 0.04 0.00 97 1011.3
20260510092517 58 338 5.2 7.0 0.00 0.04 0.00 97 1011.0
20260510091517 57 0.0 0.9 0.00 0.04 0.00 96 1011.0
20260510090516 57 0.0 0.0 0.00 0.04 0.00 96 1010.7
20260510085517 57 293 1.7 3.5 0.00 0.04 0.00 97 1010.7
20260510084537 57 0.0 1.7 0.00 0.04 0.00 96 1010.6
20260510083557 56 270 1.7 2.6 0.00 0.04 0.00 96 1010.5
20260510082537 56 225 0.9 1.7 0.00 0.04 0.00 96 1010.4
20260510081517 56 0.0 0.0 0.00 0.04 0.00 95 1010.2
20260510080537 57 180 1.7 2.6 0.00 0.04 0.00 96 1009.9
20260510075536 56 0.0 0.9 0.00 0.04 0.00 96 1009.8
20260510074517 57 158 0.9 0.9 0.00 0.04 0.00 96 1009.8
20260510073516 57 0.0 0.0 0.00 0.04 0.00 96 1009.8
20260510072517 56 0.0 0.9 0.00 0.04 0.00 95 1009.7
20260510071516 57 0.0 0.9 0.00 0.04 0.00 96 1009.6
20260510070517 57 0.0 0.9 0.00 0.04 0.00 95 1009.7
20260510065537 57 0.0 0.0 0.00 0.04 0.00 95 1009.6
20260510064516 58 0.0 0.9 0.00 0.04 0.00 95 1009.6
20260510063537 58 0.0 0.9 0.00 0.04 0.00 95 1009.5
20260510062516 58 113 0.9 1.7 0.00 0.04 0.00 95 1009.6
20260510061516 58 0.0 0.9 0.00 0.04 0.00 95 1009.4
20260510060516 58 0.0 0.0 0.00 0.04 0.00 94 1009.4
20260510055516 58 0.0 0.9 0.00 0.04 0.00 94 1009.5
20260510054536 58 0.0 0.0 0.00 0.04 0.00 94 1009.6
20260510053537 58 0.0 0.0 0.00 0.04 0.00 94 1009.6
20260510052516 59 0.0 0.0 0.00 0.04 0.00 94 1009.7
20260510051516 59 0.0 0.0 0.00 0.04 0.00 94 1009.7
20260510050516 59 0.0 0.9 0.00 0.04 0.00 94 1009.8
20260510045516 59 0.0 0.9 0.00 0.04 0.00 93 1009.9
20260510044516 59 0.0 0.0 0.00 0.04 0.00 92 1009.9
20260510043516 60 0.0 0.0 0.00 0.04 0.00 92 1009.8
20260510042516 61 0.0 0.0 0.00 0.04 0.00 92 1009.7
20260510041516 61 0.0 0.0 0.00 0.04 0.00 92 1009.7
20260510040516 61 0.0 0.0 0.00 0.04 0.00 92 1009.6
20260510035518 61 0.0 0.0 0.00 0.04 0.04 92 1009.6
20260510034515 61 0.0 0.0 0.00 0.04 0.04 91 1009.7
20260510033515 61 0.0 0.0 0.00 0.04 0.04 90 1009.5
20260510032536 62 0.0 0.0 0.00 0.04 0.04 88 1009.5
20260510031515 62 0.0 1.7 0.00 0.04 0.04 88 1009.4
20260510030515 63 113 0.9 1.7 0.00 0.04 0.04 87 1009.3
20260510025556 63 113 0.9 2.6 0.00 0.04 0.04 87 1009.3
20260510024515 63 0.0 0.9 0.00 0.04 0.04 87 1009.4
20260510023515 64 113 0.9 1.7 0.00 0.04 0.04 87 1009.4
20260510022535 64 113 2.6 3.5 0.00 0.04 0.04 87 1009.4
20260510021535 64 113 2.6 3.5 0.00 0.04 0.04 87 1009.4
20260510020515 64 90 2.6 3.5 0.00 0.04 0.04 88 1009.3
20260510015515 63 90 2.6 3.5 0.00 0.04 0.04 90 1009.2
20260510014515 62 0.0 0.9 0.00 0.04 0.04 91 1009.1
20260510013515 62 0.0 0.0 0.00 0.04 0.04 90 1009.0
20260510012515 63 0.0 0.0 0.00 0.04 0.04 90 1009.0
20260510011518 62 0.0 0.0 0.00 0.04 0.04 89 1008.9
20260510010515 62 0.0 0.0 0.00 0.04 0.04 88 1008.9
20260510005515 63 0.0 0.0 0.00 0.04 0.04 88 1008.8
20260510004515 63 0.0 0.0 0.00 0.04 0.04 87 1008.8
20260510003515 63 0.0 0.0 0.00 0.04 0.04 87 1008.6
20260510002515 64 0.0 0.9 0.00 0.04 0.04 87 1008.6
20260510001536 64 0.0 0.0 0.00 0.04 0.04 88 1008.6
20260510000515 64 0.0 0.0 0.00 0.04 0.04 88 1008.5
20260509235515 65 0.0 0.0 0.00 0.04 0.04 87 1008.4
20260509234515 66 0.0 0.0 0.00 0.04 0.04 86 1008.3
20260509233515 66 0.0 0.0 0.00 0.04 0.04 86 1008.2
20260509232515 66 0.0 0.0 0.00 0.04 0.04 87 1008.1
20260509231535 65 0.0 0.9 0.00 0.04 0.04 87 1008.1
20260509230517 65 0.0 0.9 0.00 0.04 0.04 89 1008.2
20260509225517 65 23 1.7 2.6 0.00 0.04 0.04 89 1008.0
20260509224517 65 23 2.6 3.5 0.00 0.04 0.04 88 1008.1
20260509223537 65 23 0.9 2.6 0.00 0.04 0.04 88 1008.2
20260509222517 65 23 2.6 3.5 0.00 0.04 0.04 88 1008.2
20260509221517 65 23 3.5 4.3 0.00 0.04 0.04 87 1008.1
20260509220517 65 45 3.5 4.3 0.01 0.04 0.04 87 1008.1
20260509215537 65 23 2.6 3.5 0.01 0.04 0.04 87 1008.1
20260509214517 65 23 4.3 5.2 0.01 0.04 0.04 86 1008.2
20260509213517 65 45 4.3 6.1 0.01 0.04 0.04 88 1008.2
20260509212517 65 45 5.2 6.1 0.01 0.04 0.04 89 1008.1
20260509211537 65 45 5.2 6.1 0.01 0.04 0.04 88 1008.0
20260509210517 65 45 3.5 4.3 0.00 0.03 0.03 87 1007.9
20260509205537 65 45 4.3 4.3 0.00 0.03 0.03 86 1007.9
20260509204517 65 45 3.5 5.2 0.00 0.03 0.03 86 1007.8
20260509203516 64 45 3.5 4.3 0.00 0.03 0.03 86 1008.1
20260509202517 65 23 6.1 7.8 0.00 0.03 0.03 85 1008.3
20260509201517 65 0 4.3 5.2 0.00 0.03 0.03 85 1008.3
20260509200518 65 45 1.7 1.7 0.00 0.03 0.03 83 1008.3
20260509195517 65 45 1.7 2.6 0.01 0.03 0.03 83 1008.5
20260509194537 65 158 0.9 1.7 0.03 0.03 0.03 84 1008.5
20260509193516 65 158 0.9 1.7 0.03 0.03 0.03 85 1008.6
20260509192518 65 158 0.9 2.6 0.03 0.03 0.03 86 1008.6
20260509191516 64 158 0.9 1.7 0.03 0.03 0.03 87 1008.8
20260509190518 64 0.0 0.0 0.03 0.03 0.03 85 1009.5
20260509185516 64 315 3.5 4.3 0.02 0.02 0.02 82 1009.7
20260509184538 65 23 1.7 2.6 0.00 0.00 0.00 83 1009.6
20260509183516 65 45 2.6 3.5 0.00 0.00 0.00 81 1009.4
20260509182538 66 23 5.2 7.8 0.00 0.00 0.00 77 1009.5
20260509181516 68 293 1.7 1.7 0.00 0.00 0.00 72 1009.6
20260509180518 69 203 0.9 2.6 0.00 0.00 0.00 71 1009.7